MDA191 RCQC-RCSS

Flight info

Callsign MDA191
Flight time 0h 28m
Altitude 11000
Route SWORD1A SWORD A1 HLG HLG1E
Aircraft E190/M-SDE3GILORVW/S

Departure

Time 2026-04-21 04:44
Airport Penghu Magong Airport (RCQC)

Arrival

Time 2026-04-21 05:13
Airport Taipei Songshan International Airport (RCSS)
Time Latitude Longitude Altitude Speed Heading
2026-04-21 04:39 23.56191 119.62832 96 ft 3 kts 194°
2026-04-21 04:39 23.56212 119.62839 98 ft 4 kts 198°
2026-04-21 04:40 23.56224 119.62844 97 ft 2 kts 198°
2026-04-21 04:41 23.56211 119.62839 98 ft 5 kts 198°
2026-04-21 04:42 23.56155 119.62819 97 ft 11 kts 198°
2026-04-21 04:42 23.56065 119.62786 98 ft 16 kts 198°
2026-04-21 04:42 23.55899 119.62724 98 ft 22 kts 199°
2026-04-21 04:42 23.55744 119.62670 101 ft 24 kts 198°
2026-04-21 04:43 23.55647 119.62637 105 ft 18 kts 197°
2026-04-21 04:43 23.55547 119.62594 109 ft 14 kts 221°
2026-04-21 04:43 23.55550 119.62487 109 ft 17 kts 293°
2026-04-21 04:43 23.55623 119.62381 109 ft 19 kts 353°
2026-04-21 04:44 23.55812 119.62481 105 ft 62 kts 24°
2026-04-21 04:44 23.56530 119.62697 103 ft 150 kts 18°
2026-04-21 04:44 23.57707 119.63136 462 ft 196 kts 15°
2026-04-21 04:44 23.58972 119.63859 781 ft 227 kts 40°
2026-04-21 04:45 23.60125 119.65146 1244 ft 243 kts 45°
2026-04-21 04:45 23.61305 119.66485 1641 ft 246 kts 43°
2026-04-21 04:45 23.62512 119.67814 2002 ft 247 kts 43°
2026-04-21 04:45 23.63782 119.69210 2413 ft 268 kts 43°
2026-04-21 04:46 23.65106 119.70665 2837 ft 271 kts 43°
2026-04-21 04:46 23.66438 119.72125 3264 ft 272 kts 43°
2026-04-21 04:46 23.67780 119.73595 3688 ft 274 kts 43°
2026-04-21 04:46 23.69127 119.75080 4129 ft 276 kts 43°
2026-04-21 04:47 23.70486 119.76573 4557 ft 278 kts 43°
2026-04-21 04:47 23.71838 119.78057 4991 ft 280 kts 43°
2026-04-21 04:47 23.73215 119.79574 5423 ft 282 kts 43°
2026-04-21 04:47 23.74600 119.81099 5873 ft 284 kts 43°
2026-04-21 04:48 23.75995 119.82636 6294 ft 286 kts 43°
2026-04-21 04:48 23.77398 119.84180 6706 ft 287 kts 43°
2026-04-21 04:48 23.78810 119.85735 7129 ft 289 kts 43°
2026-04-21 04:48 23.80228 119.87297 7558 ft 291 kts 43°
2026-04-21 04:49 23.81654 119.88869 7982 ft 293 kts 43°
2026-04-21 04:49 23.83093 119.90454 8404 ft 294 kts 43°
2026-04-21 04:49 23.84536 119.92047 8827 ft 296 kts 43°
2026-04-21 04:49 23.85968 119.93628 9258 ft 298 kts 43°
2026-04-21 04:50 23.87429 119.95242 9686 ft 300 kts 43°
2026-04-21 04:50 23.88900 119.96867 10103 ft 302 kts 43°
2026-04-21 04:50 23.90380 119.98500 10524 ft 303 kts 43°
2026-04-21 04:50 23.91871 120.00147 10885 ft 307 kts 43°
2026-04-21 04:51 23.93372 120.01807 10971 ft 307 kts 43°
2026-04-21 04:51 23.94870 120.03463 11015 ft 306 kts 43°
2026-04-21 04:51 23.96367 120.05120 11027 ft 306 kts 43°
2026-04-21 04:51 23.97852 120.06736 11045 ft 306 kts 42°
2026-04-21 04:52 23.99353 120.08397 11032 ft 306 kts 44°
2026-04-21 04:52 24.00833 120.10071 11025 ft 306 kts 44°
2026-04-21 04:52 24.02314 120.11745 11035 ft 306 kts 44°
2026-04-21 04:52 24.03795 120.13417 11042 ft 307 kts 44°
2026-04-21 04:53 24.05277 120.15090 11030 ft 308 kts 44°
2026-04-21 04:53 24.06762 120.16765 11027 ft 306 kts 44°
2026-04-21 04:53 24.08247 120.18437 11037 ft 306 kts 44°
2026-04-21 04:53 24.09723 120.20119 11039 ft 306 kts 44°
2026-04-21 04:54 24.11182 120.21768 11030 ft 306 kts 44°
2026-04-21 04:54 24.12663 120.23443 11036 ft 306 kts 44°
2026-04-21 04:54 24.14148 120.25116 11039 ft 307 kts 44°
2026-04-21 04:54 24.15629 120.26795 11033 ft 307 kts 44°
2026-04-21 04:55 24.17106 120.28477 11034 ft 306 kts 44°
2026-04-21 04:55 24.18585 120.30155 11041 ft 306 kts 44°
2026-04-21 04:55 24.20066 120.31832 11041 ft 306 kts 44°
2026-04-21 04:55 24.21547 120.33507 11049 ft 306 kts 44°
2026-04-21 04:56 24.23028 120.35186 11041 ft 306 kts 44°
2026-04-21 04:56 24.24489 120.36843 11024 ft 306 kts 44°
2026-04-21 04:56 24.25967 120.38523 11031 ft 306 kts 44°
2026-04-21 04:56 24.27445 120.40201 11040 ft 306 kts 44°
2026-04-21 04:57 24.28926 120.41881 11033 ft 306 kts 44°
2026-04-21 04:57 24.30405 120.43561 11030 ft 306 kts 44°
2026-04-21 04:57 24.31884 120.45238 11037 ft 306 kts 44°
2026-04-21 04:57 24.33362 120.46922 11041 ft 306 kts 44°
2026-04-21 04:58 24.34843 120.48608 11032 ft 311 kts 44°
2026-04-21 04:58 24.36421 120.50399 11061 ft 342 kts 44°
2026-04-21 04:58 24.38107 120.52319 11072 ft 363 kts 44°
2026-04-21 04:58 24.39863 120.54325 11073 ft 365 kts 44°
2026-04-21 04:59 24.41624 120.56328 11059 ft 364 kts 44°
2026-04-21 04:59 24.43379 120.58328 11040 ft 364 kts 44°
2026-04-21 04:59 24.45134 120.60332 11027 ft 364 kts 44°
2026-04-21 04:59 24.46892 120.62334 11037 ft 364 kts 44°
2026-04-21 05:00 24.48646 120.64338 11031 ft 364 kts 44°
2026-04-21 05:00 24.50401 120.66339 11029 ft 364 kts 44°
2026-04-21 05:00 24.53857 120.70358 11082 ft 366 kts 48°
2026-04-21 05:01 24.55547 120.72441 11063 ft 365 kts 45°
2026-04-21 05:01 24.57270 120.74497 10793 ft 364 kts 46°
2026-04-21 05:01 24.58973 120.76541 10491 ft 362 kts 45°
2026-04-21 05:01 24.60674 120.78568 10254 ft 360 kts 45°
2026-04-21 05:02 24.62357 120.80602 9950 ft 358 kts 46°
2026-04-21 05:02 24.64033 120.82626 9656 ft 357 kts 45°
2026-04-21 05:02 24.65721 120.84622 9389 ft 356 kts 46°
2026-04-21 05:02 24.67355 120.86610 9122 ft 354 kts 46°
2026-04-21 05:03 24.69016 120.88608 8810 ft 353 kts 45°
2026-04-21 05:03 24.70680 120.90588 8541 ft 352 kts 46°
2026-04-21 05:03 24.72328 120.92573 8261 ft 351 kts 46°
2026-04-21 05:03 24.73981 120.94540 8047 ft 350 kts 45°
2026-04-21 05:04 24.75625 120.96510 7828 ft 348 kts 45°
2026-04-21 05:04 24.77252 120.98476 7584 ft 347 kts 47°
2026-04-21 05:04 24.78857 121.00462 7312 ft 346 kts 45°
2026-04-21 05:04 24.80458 121.02381 7014 ft 344 kts 47°
2026-04-21 05:05 24.82070 121.04325 6715 ft 342 kts 44°
2026-04-21 05:05 24.83654 121.06194 6407 ft 327 kts 46°
2026-04-21 05:05 24.85149 121.08014 6083 ft 315 kts 46°
2026-04-21 05:05 24.86609 121.09755 5785 ft 305 kts 45°
2026-04-21 05:06 24.88012 121.11455 5523 ft 297 kts 46°
2026-04-21 05:06 24.89388 121.13125 5236 ft 292 kts 46°
2026-04-21 05:06 24.90748 121.14777 4945 ft 290 kts 45°
2026-04-21 05:06 24.92113 121.16408 4529 ft 289 kts 46°
2026-04-21 05:07 24.93447 121.18025 4131 ft 288 kts 46°
2026-04-21 05:07 24.94943 121.19458 3709 ft 284 kts 33°
2026-04-21 05:07 24.96586 121.20652 3309 ft 283 kts 30°
2026-04-21 05:07 24.98232 121.21794 2896 ft 273 kts 29°
2026-04-21 05:08 24.99756 121.22911 2428 ft 256 kts 34°
2026-04-21 05:08 25.00943 121.24276 2092 ft 241 kts 62°
2026-04-21 05:08 25.01519 121.25955 2068 ft 232 kts 70°
2026-04-21 05:08 25.02019 121.27637 2046 ft 229 kts 71°
2026-04-21 05:09 25.02500 121.29312 2049 ft 228 kts 71°
2026-04-21 05:09 25.02984 121.30960 2050 ft 230 kts 71°
2026-04-21 05:09 25.03517 121.32622 2079 ft 230 kts 66°
2026-04-21 05:09 25.04148 121.34240 2061 ft 229 kts 65°
2026-04-21 05:10 25.04787 121.35851 2073 ft 229 kts 65°
2026-04-21 05:10 25.05429 121.37460 2069 ft 229 kts 65°
2026-04-21 05:10 25.06074 121.39066 2073 ft 229 kts 65°
2026-04-21 05:10 25.06764 121.40648 2060 ft 229 kts 64°
2026-04-21 05:11 25.07163 121.42344 2046 ft 230 kts 82°
2026-04-21 05:11 25.07313 121.44099 2063 ft 230 kts 89°
2026-04-21 05:11 25.07292 121.45843 2073 ft 230 kts 92°
2026-04-21 05:11 25.07232 121.47613 1649 ft 235 kts 93°
2026-04-21 05:12 25.07099 121.49485 799 ft 239 kts 95°
2026-04-21 05:12 25.07037 121.51147 574 ft 190 kts 91°
2026-04-21 05:12 25.07033 121.52491 352 ft 178 kts 90°
2026-04-21 05:12 25.07020 121.53806 101 ft 165 kts 92°
2026-04-21 05:13 25.06967 121.54986 27 ft 135 kts 93°
2026-04-21 05:13 25.06941 121.55670 27 ft 61 kts 92°
2026-04-21 05:13 25.06879 121.56025 27 ft 36 kts 119°
2026-04-21 05:13 25.06791 121.56138 26 ft 11 kts 183°
2026-04-21 05:14 25.06746 121.56082 27 ft 10 kts 255°
2026-04-21 05:14 25.06724 121.55992 26 ft 15 kts 255°
2026-04-21 05:14 25.06691 121.55853 29 ft 22 kts 255°
2026-04-21 05:14 25.06651 121.55683 30 ft 25 kts 255°
2026-04-21 05:15 25.06619 121.55548 29 ft 21 kts 255°
2026-04-21 05:15 25.06578 121.55370 27 ft 26 kts 262°
2026-04-21 05:15 25.06572 121.55178 26 ft 21 kts 271°
2026-04-21 05:15 25.06559 121.55108 28 ft 7 kts 207°
2026-04-21 05:16 25.06519 121.55103 27 ft 6 kts 178°
2026-04-21 05:16 25.06479 121.55105 27 ft 4 kts 178°
2026-04-21 05:16 25.06470 121.55106 26 ft 0 kts 178°